Location: Piotrkow Trybunalski
(51.4000°N, 19.6830°E)
Time: 17:20:54
(UTC+02:00)

A-11 Canister half - Pass Details

Date: 17 February 2023
Orbit: 1512 x 1687 km, 47.2° (Epoch: 26 March)

Event Time Altitude Azimuth Distance (km) Brightness Sun altitude
Rises 06:04:00 0° 205° (SSW) 4,921 11.5 -8.1°
Reaches altitude 10° 06:07:38 10° 196° (SSW) 3,923 11.1 -7.5°
Maximum altitude 06:16:01 31° 139° (SE) 2,575 10.9 -6.2°
Drops below altitude 10° 06:24:11 10° 82° (E) 3,835 12.5 -5.0°
Sets 06:27:40 0° 73° (ENE) 4,796 12.8 -4.4°
